Regional Weather Roundup
Issued by NWS

Home | Current Version | Previous Version | Graphics & Text | Print | Product List | Glossary On
Versions: 1 2 3 4 5 6 7 8 9 10 11 12 13 14 15 16 17 18 19 20 21 22 23 24 25 26 27 28 29 30 31 32 33 34 35 36 37 38 39 40 41 42 43 44 45 46 47 48 49 50
000
ASUS43 KMKX 262000
RWRWI

WISCONSIN REGIONAL WEATHER ROUNDUP
NATIONAL WEATHER SERVICE MILWAUKEE/SULLIVAN WI
300 PM CDT THU MAY 26 2016

NOTE: "FAIR" INDICATES FEW OR NO CLOUDS BELOW 12,000 FEET WITH NO
SIGNIFICANT WEATHER AND/OR OBSTRUCTIONS TO VISIBILITY.

WIZ001-002-006>008-014>016-023>028-262100-
NORTHWEST WISCONSIN

CITY           SKY/WX    TMP DP  RH WIND       PRES   REMARKS
SUPERIOR ARPT  CLOUDY    57  51  81 NE7       29.82S
ASHLAND        PTSUNNY   64  59  83 NW6       29.82R
HAYWARD        PTSUNNY   75  57  53 VRB5      29.80R
SIREN          FAIR      77  55  45 SW8       29.79S
CUMBERLAND     FAIR      75  54  46 SW12      29.81S
RICE LAKE      PTSUNNY   78  55  46 W10       29.82S
CHETEK         FAIR      78  58  51 SW5       29.81R
LADYSMITH      FAIR      76  61  57 SW8       29.84R
EAU CLAIRE     NOT AVBL
MENOMONIE      FAIR      80  56  43 SW12G21   29.82S HX  80
NEW RICHMOND   FAIR      79  50  35 SW14G23   29.81F
OSCEOLA        FAIR      79  52  39 SW10G21   29.83S
$$

WIZ003>005-009-010-017-018-262100-
NORTH CENTRAL WISCONSIN

CITY           SKY/WX    TMP DP  RH WIND       PRES   REMARKS
MANITOWISH WTR NOT AVBL
ARBOR VITAE    FAIR      72  60  67 CALM      29.83S
WOODRUFF       FAIR      72  60  67 CALM      29.83S
RHINELANDER    PTSUNNY   70  59  68 CALM      29.84F
EAGLE RIVER      N/A     68  58  69 SW7       29.84R
LAND O LAKES   PTSUNNY   66  60  80 W3        29.85R
PHILLIPS       PTSUNNY   73  59  61 S6        29.81R
TOMAHAWK       PTSUNNY   72  59  64 W5        29.83S
MEDFORD        FAIR      72  62  71 SW7       29.84R
MERRILL        FAIR     N/A N/A N/A SW13      29.83S
$$

WIZ029-030-035-036-043>047-262100-
CENTRAL WISCONSIN

CITY           SKY/WX    TMP DP  RH WIND       PRES   REMARKS
WAUSAU         FAIR      77  59  53 SW14      29.83R
MOSINEE        PTSUNNY   73  63  68 W15G21    29.86R
MARSHFIELD     FAIR      77  56  48 W15G21    29.85R
STEVENS POINT  FAIR      74  55  50 W13G25    29.85R
WAUPACA        FAIR      80  58  47 SW15G22   29.83R HX  80
WAUTOMA        FAIR      81  59  47 W15G22    29.84R HX  81
WISC RAPIDS    FAIR      80  54  40 W14       29.85R HX  80
CAMP DOUGLAS   NOT AVBL
$$

WIZ011>013-019>022-031-037>040-048>050-262100-
NORTHEAST WISCONSIN

CITY           SKY/WX    TMP DP  RH WIND       PRES   REMARKS
ANTIGO         CLOUDY    70  62  76 NW3       29.84S
SHAWANO        PTSUNNY   79  61  54 SW9G18    29.82R HX  80
OCONTO         FAIR      76  63  62 W12G24    29.80S
STURGEON BAY   NOT AVBL
GREEN BAY      FAIR      79  62  56 W15       29.82R HX  80
MANITOWOC      NOT AVBL
APPLETON       MOSUNNY   77  57  50 W14G22    29.82R
CLINTONVILLE   PTSUNNY   77  57  50 W12G21    29.82S
OSHKOSH        FAIR      79  59  50 W8        29.83R HX  80
$$

WIZ032>034-041-042-053>061-262100-
SOUTHWEST WISCONSIN

CITY           SKY/WX    TMP DP  RH WIND       PRES   REMARKS
LA CROSSE      FAIR      83  59  44 SW16      29.83S HX  83
SPARTA         FAIR      79  61  54 SW10G16   29.86S HX  80
VIROQUA        FAIR      77  59  54 SW13      29.89R
BOSCOBEL       FAIR      84  56  38 SW12G21   29.85F HX  83
PRAIRIE DU CHI FAIR      81  52  36 W9        29.86S HX  80
PLATTEVILLE    FAIR      83  54  36 W16       29.88S HX  82
$$

WIZ056-057-062-063-064-067-068-262100-
SOUTH CENTRAL WISCONSIN

CITY           SKY/WX    TMP DP  RH WIND       PRES   REMARKS
REEDSBURG      FAIR      80  61  51 W12G21    29.86R HX  81
BARABOO/DELLS  FAIR      80  56  43 W12G18    29.87R HX  80
LONE ROCK      NOT AVBL
MINERAL POINT  FAIR      82  48  30 W10G22    29.88S HX  81
MADISON        PTSUNNY   81  56  42 SW10      29.84F HX  81
MIDDLETON      FAIR      83  54  37 W16       29.85F HX  82
WATERTOWN      FAIR      81  57  43 W13G21    29.84S HX  81
MONROE         FAIR      82  52  34 SW18      29.87S HX  81
JANESVILLE     MOSUNNY   84  61  45 SW14G20   29.85F HX  84
$$

WIZ051-052-058>065-066-070>072-262100-
SOUTHEAST WISCONSIN

CITY           SKY/WX    TMP DP  RH WIND       PRES   REMARKS
MILWAUKEE      PTSUNNY   82  60  47 SW16      29.85F HX  82
WAUKESHA       MOSUNNY   79  61  53 SW15G23   29.86F HX  80
MILWAUKEE/TIMM MOSUNNY  N/A N/A N/A SW15G22   29.85S
RACINE         FAIR      83  62  49 W13       29.87F HX  84
BURLINGTON     FAIR      81  58  45 SW20      29.87S HX  81
KENOSHA        FAIR      82  62  50 SW15G22   29.86F HX  83
FOND DU LAC    FAIR      82  58  43 W13G21    29.83S HX  82
SHEBOYGAN      FAIR      82  61  48 SW18      29.83R HX  83
WEST BEND      FAIR      81  55  41 SW21G26   29.84S HX  80
JUNEAU         FAIR      79  60  52 SW14      29.86S HX  80
$$

LSZ147-162-262100-
LAKE SUPERIOR

STATION/POSITION TIME  TEMP    WIND        PRES    WAVE
                       AIR SEA DIR/SP/G            HT/PER
                 (UTC) (F)     (DEG/KT/KT) (MB)    (FT/S)
W MID LAKE BUOY  1850   41 38   50/  8/ 10 1009.5F   1/ 4
DEVILS ISLAND    1900   46      40/  6/  7 1010.5R
PORT WING        1740   42     330/  4/  4 1010.2
SAXON HARBOR     1900   58      40/  1/  3 1008.8F
$$

LMZ867-665-643>646-262100-
LAKE MICHIGAN

STATION/POSITION TIME  TEMP    WIND        PRES    WAVE
                       AIR SEA DIR/SP/G            HT/PER
                 (UTC) (F)     (DEG/KT/KT) (MB)    (FT/S)
CHAMBERS ISLAND  1900   61     310/  7/  8 1009.5R
N MID LAKE BUOY  1850   49 45  200/ 12/ 16 1009.8S   1/ 3
NORTHPORT PIER   1900   53     160/  9/ 14 1009.8R
SISTER BAY       1819   70     150/ 13/ 16   N/A
ALGOMA LAKESHORE 1902          220/  7/  8   N/A
KEWAUNEE LAKESHO 1900   56     170/ 13/ 17 1008.7F
SHEBOYGAN LAKESH 1900   57     170/ 21/ 23 1010.1F
PORT WASHINGTON  1900   64     180/  8/ 12 1011.2S
S MID LAKE BUOY  1850   55 49  170/  8/ 10 1011.3F   1/ 3
KENOSHA   LAKESH 1900   64     170/ 11/ 14 1011.2S
$$

TC  - TEMPERATURE IN CELSIUS
VSB - VISIBILITY IN STATUTE MILES
WCI - WIND CHILL INDEX
HX  - HEAT INDEX




USA.gov is the U.S. government's official web portal to all federal, state and local government web resources and services.